CAPE
0 0 0 0 0 0 0 0 0 0 0 0 0 0 0 0 0 0 0 152 1170 1027 1182 1291 1229 1189 891 860 1022 991 1043 1096 1063 864 589 709 882 636 430 276 64 0 0 3 0 0 0 0 0
0 0 0 0 0 0 0 0 0 0 0 0 0 0 0 0 0 0 0 44 1278 1117 1190 1329 1059 1024 832 795 929 969 783 556 472 399 657 921 766 609 456 149 7 0 0 2 0 0 0 0 0
0 0 0 0 0 0 0 0 0 0 0 0 0 0 0 0 0 0 0 118 1224 1158 1209 1224 960 787 699 685 818 818 649 497 401 336 579 774 602 557 283 33 0 0 0 0 0 0 0 0 0
0 0 0 0 0 0 0 0 0 0 0 0 0 0 0 0 0 0 0 281 811 1244 1312 1079 1120 937 823 675 769 756 710 561 556 597 503 512 583 478 110 0 0 0 0 0 0 0 0 0 0
0 0 0 0 0 0 0 0 0 0 0 0 0 0 0 0 0 0 21 240 636 1156 1245 1135 1126 1095 1071 841 610 787 721 738 612 801 629 427 458 347 203 0 0 0 0 0 0 0 0 0 0
0 0 0 0 0 0 0 0 0 0 0 0 0 0 0 0 0 0 31 137 401 1039 1164 1124 1035 1031 907 690 520 600 561 469 394 415 425 321 331 157 61 0 0 0 0 0 0 0 0 0 0
0 0 0 0 0 0 0 0 0 0 0 0 0 0 0 0 0 0 0 0 0 9 245 857 901 907 871 814 778 846 688 512 410 361 225 192 122 116 8 0 0 0 0 0 0 0 0 0 0
0 0 0 0 0 0 0 0 0 0 0 0 0 0 0 0 0 0 0 0 0 0 0 0 0 397 578 710 671 682 741 643 455 402 280 222 63 0 0 0 4 4 3 1 0 0 0 0 0
0 0 0 0 0 0 0 0 0 0 0 0 0 0 0 0 0 0 0 0 0 0 0 0 0 0 0 228 372 458 545 650 515 430 288 185 32 0 0 2 9 8 7 1 0 0 0 0 0
0 0 0 0 0 0 0 0 0 0 0 0 0 0 0 0 0 0 0 0 0 0 0 0 0 0 0 3 208 382 346 464 583 512 344 291 194 3 2 0 0 0 3 2 0 0 0 0 0
0 0 0 0 0 0 0 0 0 0 0 0 0 0 0 0 0 0 0 0 0 0 0 0 0 0 0 0 7 18 288 430 315 366 336 272 80 9 0 0 0 0 0 0 0 0 0 0 0
0 0 0 0 0 0 0 0 0 0 0 0 0 0 0 0 0 0 0 0 0 0 0 0 0 0 0 0 0 39 95 2 0 8 147 127 32 0 0 0 0 0 0 0 0 0 0 0 0
0 0 0 0 0 0 0 0 0 0 0 0 0 0 0 0 0 0 0 0 0 0 0 0 0 0 0 0 0 0 0 0 0 0 2 4 1 1 0 0 0 0 0 0 0 0 0 0 0
0 0 0 0 0 0 0 0 0 0 0 0 0 0 0 0 0 0 0 0 0 0 0 0 0 0 0 0 0 0 0 0 0 0 0 0 0 0 0 0 0 0 0 0 0 0 0 0 0
0 0 0 0 0 0 0 0 0 0 0 0 0 0 0 0 0 0 0 0 0 0 0 0 0 0 0 0 0 0 0 0 0 0 0 0 0 0 0 0 0 0 0 0 0 0 0 0 0
0 0 0 0 0 0 0 0 0 0 0 0 0 0 0 0 0 0 0 0 0 0 0 0 0 0 0 0 0 0 0 0 0 0 0 0 0 0 0 0 0 0 0 0 0 0 0 0 0
0 0 0 0 0 0 0 0 0 0 0 0 0 0 0 0 0 0 0 0 0 0 0 0 0 0 0 0 0 0 0 0 0 0 0 0 0 0 0 0 0 0 0 0 0 0 0 0 0
0 0 0 0 0 0 0 0 0 0 0 0 0 0 0 0 0 0 0 0 0 0 0 0 0 0 0 0 0 0 0 0 0 0 0 0 0 0 0 0 0 0 0 0 0 0 0 0 0
0 0 0 0 0 0 0 0 0 0 0 0 0 0 0 0 0 0 0 0 0 0 0 0 0 0 0 0 0 0 0 0 0 0 0 0 0 0 0 0 0 0 0 0 0 0 0 0 0
0 0 0 0 0 0 0 0 0 0 0 0 0 0 0 0 0 0 0 0 0 0 0 0 0 0 0 0 0 0 0 0 0 0 0 0 0 0 0 0 0 0 0 0 0 0 0 0 0
0 0 0 0 0 0 0 0 0 0 0 0 0 0 0 0 0 0 0 0 0 0 0 0 0 0 0 0 0 0 0 0 0 0 0 0 0 0 0 0 0 0 0 0 0 0 0 0 0
0 0 0 0 0 0 0 0 0 0 0 0 0 0 0 0 0 0 0 0 0 0 0 0 0 0 0 0 0 0 0 0 0 0 0 0 0 0 0 0 0 0 0 0 0 0 0 0 0
0 0 0 0 0 0 0 0 0 0 0 0 0 0 0 0 0 0 0 0 0 0 0 0 0 0 0 0 0 0 0 0 0 0 0 0 0 0 0 0 0 0 0 0 0 0 0 0 0
0 0 0 0 0 0 0 0 0 0 0 0 0 0 0 0 0 0 0 0 0 0 0 0 0 0 0 0 0 0 0 0 0 0 0 0 0 0 0 0 0 0 0 0 0 0 0 0 0
0 0 0 0 0 0 0 0 0 0 0 0 0 0 0 0 0 0 0 0 0 0 0 0 0 0 0 0 0 0 0 0 0 0 0 0 0 0 0 0 0 0 0 0 0 0 0 0 0
0 0 0 0 0 0 0 0 0 0 0 0 0 0 0 0 0 0 0 0 0 0 0 0 0 0 0 0 0 0 0 0 0 0 0 0 0 0 0 0 0 0 0 0 0 0 0 0 0
0 0 0 0 0 0 0 0 0 0 0 0 0 0 0 0 0 0 0 0 0 0 0 0 0 0 0 0 0 0 0 0 0 0 0 0 0 0 0 0 0 0 0 0 0 0 0 0 0
0 0 0 0 0 0 0 0 0 0 0 0 0 0 0 0 0 0 0 0 0 0 0 0 0 0 0 0 0 0 0 0 0 0 0 0 0 0 0 0 0 0 0 0 0 0 0 0 0
0 0 0 0 0 0 0 0 0 0 0 0 0 0 0 0 0 0 0 0 0 0 0 0 0 0 0 0 0 0 0 0 0 0 0 0 0 0 0 0 0 0 0 0 0 0 0 0 0
0 0 0 0 0 0 0 0 0 0 0 0 0 0 0 0 0 0 0 0 0 0 0 0 0 0 0 0 0 0 0 0 0 0 0 0 0 0 0 0 0 0 0 0 0 0 0 0 0
CIN
-0 -0 -0 -0 -0 -0 -0 -0 -0 -0 -0 -0 -0 -0 -0 -0 -0 -0 -0 -149 -32 -43 -34 -16 -20 -18 -33 -35 -18 -18 -6 -0 -0 -2 -10 -1 -0 -0 -0 -15 -49 -0 -0 -0 -0 -0 -0 -0 -0
-0 -0 -0 -0 -0 -0 -0 -0 -0 -0 -0 -0 -0 -0 -0 -0 -0 -0 -0 -230 -18 -34 -34 -17 -25 -18 -29 -34 -17 -11 -20 -33 -29 -25 -4 -0 -0 -0 -0 -19 -52 -0 -0 -0 -0 -0 -0 -0 -0
-0 -0 -0 -0 -0 -0 -0 -0 -0 -0 -0 -0 -0 -0 -0 -0 -0 -0 -0 -213 -21 -25 -33 -26 -36 -43 -43 -41 -27 -19 -22 -31 -33 -35 -6 -0 -1 -0 -3 -96 -0 -0 -0 -0 -0 -0 -0 -0 -0
-0 -0 -0 -0 -0 -0 -0 -0 -0 -0 -0 -0 -0 -0 -0 -0 -0 -0 -0 -149 -40 -16 -17 -22 -15 -21 -27 -38 -30 -28 -21 -25 -17 -4 -6 -3 -0 -1 -32 -0 -0 -0 -0 -0 -0 -0 -0 -0 -0
-0 -0 -0 -0 -0 -0 -0 -0 -0 -0 -0 -0 -0 -0 -0 -0 -0 -0 -256 -195 -87 -23 -19 -17 -12 -8 -7 -10 -21 -9 -9 -8 -8 -0 -1 -2 -0 -1 -7 -0 -0 -0 -0 -0 -0 -0 -0 -0 -0
-0 -0 -0 -0 -0 -0 -0 -0 -0 -0 -0 -0 -0 -0 -0 -0 -0 -0 -286 -287 -179 -33 -13 -10 -9 -7 -8 -21 -36 -24 -23 -26 -27 -19 -7 -6 -2 -27 -60 -0 -0 -0 -0 -0 -0 -0 -0 -0 -0
-0 -0 -0 -0 -0 -0 -0 -0 -0 -0 -0 -0 -0 -0 -0 -0 -0 -0 -0 -0 -0 -84 -231 -33 -17 -11 -9 -9 -10 -3 -4 -8 -10 -13 -17 -25 -52 -58 -138 -0 -0 -0 -0 -0 -0 -0 -0 -0 -0
-0 -0 -0 -0 -0 -0 -0 -0 -0 -0 -0 -0 -0 -0 -0 -0 -0 -0 -0 -0 -0 -0 -0 -0 -0 -107 -43 -7 -9 -6 -5 -3 -5 -7 -13 -21 -74 -0 -0 -0 -24 -31 -40 -47 -0 -0 -0 -0 -0
-0 -0 -0 -0 -0 -0 -0 -0 -0 -0 -0 -0 -0 -0 -0 -0 -0 -0 -0 -0 -0 -0 -0 -0 -0 -0 -0 -130 -57 -24 -10 -5 -5 -7 -14 -22 -99 -0 -11 -28 -25 -46 -55 -41 -0 -0 -0 -0 -0
-0 -0 -0 -0 -0 -0 -0 -0 -0 -0 -0 -0 -0 -0 -0 -0 -0 -0 -0 -0 -0 -0 -0 -0 -0 -0 -0 -151 -146 -82 -80 -30 -12 -19 -30 -25 -24 -47 -43 -12 -0 -0 -83 -87 -0 -4 -0 -0 -0
-0 -0 -0 -0 -0 -0 -0 -0 -0 -0 -0 -0 -0 -0 -0 -0 -0 -0 -0 -0 -0 -0 -0 -0 -0 -0 -0 -0 -129 -286 -95 -56 -72 -52 -24 -33 -116 -170 -0 -0 -0 -0 -0 -0 -0 -0 -0 -0 -0
-0 -0 -0 -0 -0 -0 -0 -0 -0 -0 -0 -0 -0 -0 -0 -0 -0 -0 -0 -0 -0 -0 -0 -0 -0 -0 -0 -0 -0 -261 -202 -278 -0 -212 -87 -66 -131 -10 -0 -0 -0 -0 -0 -0 -0 -0 -0 -0 -0
-0 -0 -0 -0 -0 -0 -0 -0 -0 -0 -0 -0 -0 -0 -0 -0 -0 -0 -0 -0 -0 -0 -0 -0 -0 -0 -0 -0 -0 -0 -0 -0 -0 -0 -212 -190 -87 -188 -0 -2 -0 -0 -0 -0 -0 -0 -0 -0 -0
-0 -0 -0 -0 -0 -0 -0 -0 -0 -0 -0 -0 -0 -0 -0 -0 -0 -0 -0 -0 -0 -0 -0 -0 -0 -0 -0 -0 -0 -0 -0 -0 -0 -0 -0 -0 -0 -0 -0 -0 -0 -0 -0 -0 -0 -0 -0 -0 -0
-0 -0 -0 -0 -0 -0 -0 -0 -0 -0 -0 -0 -0 -0 -0 -0 -0 -0 -0 -0 -0 -0 -0 -0 -0 -0 -0 -0 -0 -0 -0 -0 -0 -0 -0 -0 -0 -0 -0 -0 -0 -0 -0 -0 -0 -0 -0 -0 -0
-0 -0 -0 -0 -0 -0 -0 -0 -0 -0 -0 -0 -0 -0 -0 -0 -0 -0 -0 -0 -0 -0 -0 -0 -0 -0 -0 -0 -0 -0 -0 -0 -0 -0 -0 -0 -0 -0 -0 -0 -0 -0 -0 -0 -0 -0 -0 -0 -0
-0 -0 -0 -0 -0 -0 -0 -0 -0 -0 -0 -0 -0 -0 -0 -0 -0 -0 -0 -0 -0 -0 -0 -0 -0 -0 -0 -0 -0 -0 -0 -0 -0 -0 -0 -0 -0 -0 -0 -0 -0 -0 -0 -0 -0 -0 -0 -0 -0
-0 -0 -0 -0 -0 -0 -0 -0 -0 -0 -0 -0 -0 -0 -0 -0 -0 -0 -0 -0 -0 -0 -0 -0 -0 -0 -0 -0 -0 -0 -0 -0 -0 -0 -0 -0 -0 -0 -0 -0 -0 -0 -0 -0 -0 -0 -0 -0 -0
-0 -0 -0 -0 -0 -0 -0 -0 -0 -0 -0 -0 -0 -0 -0 -0 -0 -0 -0 -0 -0 -0 -0 -0 -0 -0 -0 -0 -0 -0 -0 -0 -0 -0 -0 -0 -0 -0 -0 -0 -0 -0 -0 -0 -0 -0 -0 -0 -0
-0 -0 -0 -0 -0 -0 -0 -0 -0 -0 -0 -0 -0 -0 -0 -0 -0 -0 -0 -0 -0 -0 -0 -0 -0 -0 -0 -0 -0 -0 -0 -0 -0 -0 -0 -0 -0 -0 -0 -0 -0 -0 -0 -0 -0 -0 -0 -0 -0
-0 -0 -0 -0 -0 -0 -0 -0 -0 -0 -0 -0 -0 -0 -0 -0 -0 -0 -0 -0 -0 -0 -0 -0 -0 -0 -0 -0 -0 -0 -0 -0 -0 -0 -0 -0 -0 -0 -0 -0 -0 -0 -0 -0 -0 -0 -0 -0 -0
-0 -0 -0 -0 -0 -0 -0 -0 -0 -0 -0 -0 -0 -0 -0 -0 -0 -0 -0 -0 -0 -0 -0 -0 -0 -0 -0 -0 -0 -0 -0 -0 -0 -0 -0 -0 -0 -0 -0 -0 -0 -0 -0 -0 -0 -0 -0 -0 -0
-0 -0 -0 -0 -0 -0 -0 -0 -0 -0 -0 -0 -0 -0 -0 -0 -0 -0 -0 -0 -0 -0 -0 -0 -0 -0 -0 -0 -0 -0 -0 -0 -0 -0 -0 -0 -0 -0 -0 -0 -0 -0 -0 -0 -0 -0 -0 -0 -0
-0 -0 -0 -0 -0 -0 -0 -0 -0 -0 -0 -0 -0 -0 -0 -0 -0 -0 -0 -0 -0 -0 -0 -0 -0 -0 -0 -0 -0 -0 -0 -0 -0 -0 -0 -0 -0 -0 -0 -0 -0 -0 -0 -0 -0 -0 -0 -0 -0
-0 -0 -0 -0 -0 -0 -0 -0 -0 -0 -0 -0 -0 -0 -0 -0 -0 -0 -0 -0 -0 -0 -0 -0 -0 -0 -0 -0 -0 -0 -0 -0 -0 -0 -0 -0 -0 -0 -0 -0 -0 -0 -0 -0 -0 -0 -0 -0 -0
-0 -0 -0 -0 -0 -0 -0 -0 -0 -0 -0 -0 -0 -0 -0 -0 -0 -0 -0 -0 -0 -0 -0 -0 -0 -0 -0 -0 -0 -0 -0 -0 -0 -0 -0 -0 -0 -0 -0 -0 -0 -0 -0 -0 -0 -0 -0 -0 -0
-0 -0 -0 -0 -0 -0 -0 -0 -0 -0 -0 -0 -0 -0 -0 -0 -0 -0 -0 -0 -0 -0 -0 -0 -0 -0 -0 -0 -0 -0 -0 -0 -0 -0 -0 -0 -0 -0 -0 -0 -0 -0 -0 -0 -0 -0 -0 -0 -0
-0 -0 -0 -0 -0 -0 -0 -0 -0 -0 -0 -0 -0 -0 -0 -0 -0 -0 -0 -0 -0 -0 -0 -0 -0 -0 -0 -0 -0 -0 -0 -0 -0 -0 -0 -0 -0 -0 -0 -0 -0 -0 -0 -0 -0 -0 -0 -0 -0
-0 -0 -0 -0 -0 -0 -0 -0 -0 -0 -0 -0 -0 -0 -0 -0 -0 -0 -0 -0 -0 -0 -0 -0 -0 -0 -0 -0 -0 -0 -0 -0 -0 -0 -0 -0 -0 -0 -0 -0 -0 -0 -0 -0 -0 -0 -0 -0 -0
-0 -0 -0 -0 -0 -0 -0 -0 -0 -0 -0 -0 -0 -0 -0 -0 -0 -0 -0 -0 -0 -0 -0 -0 -0 -0 -0 -0 -0 -0 -0 -0 -0 -0 -0 -0 -0 -0 -0 -0 -0 -0 -0 -0 -0 -0 -0 -0 -0
Wind_Speed
13 13 14 17 21 22 22 23 23 24 23 21 23 19 21 17 16 21 21 13 24 24 24 24 24 23 24 23 22 21 19 13 12 14 16 18 19 20 22 22 22 23 23 23 22 23 22 22 22
13 14 18 19 21 22 21 23 22 23 26 26 26 25 18 19 12 15 15 17 23 23 24 24 24 22 21 19 20 22 22 22 22 22 23 22 21 21 22 22 24 24 25 25 23 24 24 24 23
15 16 18 19 21 20 20 21 22 23 21 19 21 19 18 18 8 20 21 22 22 21 21 22 22 22 22 21 21 21 21 20 21 21 21 21 21 22 22 22 23 24 25 25 25 25 25 25 25
14 18 19 21 22 18 20 21 22 22 20 20 21 20 16 11 18 22 16 21 20 21 21 20 20 19 19 19 19 19 20 20 20 20 20 19 20 20 21 22 23 24 25 25 25 25 25 25 25
14 18 18 19 20 20 20 20 20 20 20 20 19 19 20 9 12 11 11 18 16 20 20 19 18 18 17 17 17 17 18 18 18 18 18 18 19 19 20 21 22 23 24 25 26 25 25 25 25
13 16 17 16 17 17 16 17 17 18 19 19 18 17 18 5 11 11 12 12 13 16 17 17 16 16 17 17 17 17 17 16 16 17 17 18 18 19 19 20 21 22 24 25 25 26 25 25 25
13 15 15 18 14 15 15 14 14 15 16 16 16 16 16 14 12 11 11 12 12 13 12 14 13 12 12 13 17 17 16 15 15 15 16 16 16 16 17 18 20 21 22 24 25 25 25 25 25
13 14 16 16 12 13 13 12 13 12 13 13 14 14 14 14 14 14 13 13 13 12 12 12 11 10 8 8 9 10 10 11 12 12 13 13 14 14 15 16 18 20 21 23 24 25 25 25 25
14 14 16 18 12 12 11 11 11 11 10 13 15 13 12 12 12 12 12 12 13 13 13 13 13 13 12 11 9 8 9 10 9 10 11 11 12 12 13 15 16 18 19 21 22 23 23 23 24
14 14 16 18 17 11 9 10 8 9 8 12 13 12 11 10 9 9 9 11 12 12 13 13 13 11 9 8 7 8 7 7 7 7 8 9 11 12 12 14 15 16 18 19 21 21 21 22 23
16 14 17 17 17 13 10 12 10 8 7 9 6 8 9 9 8 8 10 11 12 12 13 15 14 13 10 9 7 7 8 9 12 9 9 10 10 11 12 13 15 16 17 19 20 21 22 22 22
17 16 16 17 18 15 12 12 10 10 12 12 6 7 8 7 7 8 9 11 12 13 14 16 16 15 13 11 9 9 9 10 11 12 11 11 11 11 11 12 14 14 15 17 18 20 20 21 22
18 17 17 16 16 14 13 10 10 13 8 8 7 7 7 6 7 8 9 11 12 13 15 16 17 16 15 10 9 9 9 9 10 11 12 10 10 10 11 13 14 16 17 17 18 20 21 22 23
18 20 18 14 14 14 12 11 13 13 4 6 6 6 6 5 5 8 9 10 11 13 15 15 15 14 11 9 8 8 10 10 11 12 13 12 12 12 12 14 16 17 17 17 18 20 21 22 23
19 21 21 14 13 14 13 16 8 9 4 6 6 6 7 8 7 7 10 10 11 13 13 13 13 12 10 9 9 9 10 10 11 11 12 13 13 13 13 14 16 17 18 18 19 20 21 22 23
21 19 22 18 7 13 14 23 18 7 4 6 6 7 8 8 8 9 10 11 11 12 12 13 12 10 9 8 8 9 9 10 11 12 13 13 13 13 14 15 17 18 19 19 20 21 22 23 24
20 20 17 21 10 14 14 23 18 9 8 8 7 6 8 9 9 8 9 9 10 10 11 11 10 8 7 7 8 9 9 10 11 12 13 13 14 14 15 16 17 18 19 20 21 23 23 23 23
20 19 20 22 17 16 18 18 20 13 12 8 7 8 9 9 8 8 9 9 9 10 10 9 9 6 5 6 7 8 9 10 11 12 13 13 14 14 15 16 17 17 18 20 21 22 25 23 23
22 25 26 24 19 20 21 22 21 19 14 12 12 11 10 9 9 9 9 8 9 9 9 7 5 5 3 3 3 5 6 8 10 12 12 13 14 15 15 16 17 18 19 19 21 22 25 27 23
21 27 29 30 23 23 31 31 31 25 18 13 14 14 14 13 11 11 10 9 9 8 6 5 3 2 2 4 4 5 4 7 9 11 12 13 14 14 15 16 17 19 20 21 22 22 23 27 28
23 26 27 27 26 27 37 48 40 31 17 21 18 18 17 16 15 13 12 10 9 8 6 3 1 1 2 1 2 3 4 6 8 10 11 12 13 14 15 16 17 19 20 21 23 25 25 24 28
29 24 26 29 31 37 26 53 33 30 33 25 15 19 19 18 17 14 12 11 10 8 6 4 3 2 2 1 1 1 2 3 6 7 9 11 12 13 15 15 17 18 20 22 23 25 26 25 27
27 21 24 26 30 34 32 42 42 27 24 19 21 20 19 18 16 15 13 11 9 8 7 6 5 4 3 3 3 2 2 2 5 6 8 9 11 13 14 15 16 18 20 21 23 25 27 27 28
17 22 26 28 30 39 28 32 45 33 28 30 27 20 17 16 14 13 11 9 9 9 8 7 7 6 4 4 4 3 2 2 3 4 5 7 9 11 13 14 16 17 19 21 23 24 26 27 28
21 23 32 34 34 43 30 33 33 22 23 27 28 17 13 12 12 12 12 12 11 11 10 9 8 7 6 5 5 4 3 2 2 2 2 4 7 10 12 13 15 17 19 20 22 24 26 27 28
24 23 27 39 39 41 29 35 34 22 23 30 29 18 12 11 13 13 13 12 12 11 11 10 9 8 7 6 5 4 4 2 1 1 2 5 7 9 10 12 15 17 18 20 22 24 25 25 26
23 25 24 33 33 42 35 38 39 28 28 26 22 15 12 12 13 12 12 11 12 12 12 11 10 8 8 7 6 6 5 3 3 2 4 5 7 8 9 12 14 17 18 20 22 23 24 25 26
21 16 23 22 33 39 35 39 34 30 26 21 18 13 12 12 12 12 12 12 12 12 11 10 10 10 9 8 7 7 6 4 3 4 5 6 7 8 10 12 14 17 18 19 20 23 24 25 26
22 24 22 21 26 37 52 42 25 24 20 18 14 10 10 12 12 12 12 13 12 12 12 12 11 10 10 9 8 7 6 5 5 6 6 6 6 8 11 12 14 17 18 19 20 22 23 25 27
25 26 22 27 31 32 40 53 25 28 24 18 18 15 12 12 13 13 12 13 14 14 13 14 13 12 12 11 10 9 8 7 7 7 7 6 9 10 11 13 15 16 17 18 20 22 23 26 29
Wind_Direction
199 200 173 119 93 75 72 84 99 91 103 114 52 46 50 24 23 76 146 31 97 108 112 109 105 99 97 90 83 67 52 20 5 9 10 23 28 31 33 28 19 13 11 10 10 11 8 6 6
196 172 128 102 88 65 59 81 56 85 107 95 79 75 24 41 7 53 181 170 107 101 109 113 106 97 91 78 76 81 81 76 67 63 59 58 46 37 40 27 25 21 17 18 16 14 12 12 10
185 152 101 86 81 79 76 89 82 99 109 133 114 126 131 143 272 135 136 117 104 97 102 106 106 104 102 96 92 87 84 70 72 62 58 54 46 50 44 34 27 22 20 20 18 16 16 16 15
191 130 99 52 45 39 81 88 86 90 108 97 92 63 163 208 155 127 170 84 85 99 100 103 102 99 97 94 94 93 92 87 80 74 63 48 45 50 48 41 35 29 26 21 17 15 14 13 12
197 69 53 62 51 59 79 89 92 93 93 87 87 96 103 224 14 8 358 64 58 86 97 103 101 100 95 93 91 93 93 87 75 64 54 50 47 53 52 45 36 30 24 20 19 17 16 15 14
342 23 35 46 57 75 70 80 80 72 88 76 58 59 88 132 12 3 14 16 22 65 80 92 94 95 106 112 115 115 105 95 86 70 62 61 62 52 52 42 35 31 27 23 20 18 17 15 13
1 4 33 17 61 60 79 75 64 77 75 61 63 58 73 73 31 23 17 14 8 17 11 60 88 79 81 99 129 145 120 100 88 85 81 70 59 47 41 40 39 33 26 21 18 17 14 12 10
351 5 359 359 66 37 85 65 42 43 52 30 21 74 81 96 69 54 35 20 13 359 350 339 337 343 57 48 48 34 24 76 76 68 60 61 54 45 45 46 43 40 32 28 23 21 20 18 15
339 358 347 330 17 27 75 51 15 17 31 358 342 16 38 75 69 54 36 14 5 360 357 348 339 328 332 332 4 39 15 3 56 70 47 51 47 47 61 60 54 48 40 31 28 27 26 23 22
341 346 342 346 343 26 45 35 56 14 17 355 353 9 36 61 67 45 23 5 1 1 357 353 351 359 15 41 44 24 57 73 78 70 43 81 89 77 69 63 49 40 33 30 20 20 23 24 20
335 343 337 336 343 351 14 9 17 14 6 0 55 53 37 26 20 18 11 0 352 358 347 337 338 342 2 10 37 61 36 13 352 28 65 78 69 84 74 38 34 38 33 25 19 18 17 16 16
330 338 337 333 331 342 353 356 357 347 335 347 61 64 30 33 26 13 357 345 347 347 339 333 333 334 339 342 359 353 354 6 357 355 18 39 45 49 42 30 29 27 24 19 19 15 13 10 8
327 331 335 338 338 341 346 352 349 332 353 4 28 13 15 21 15 356 356 348 343 339 336 332 330 325 326 341 348 356 2 359 357 356 10 29 39 35 24 16 12 9 9 11 10 9 6 3 4
325 321 328 339 339 340 341 342 335 331 359 347 352 347 348 358 360 345 344 345 344 344 338 341 339 336 346 351 6 11 0 0 5 357 353 2 17 20 16 9 4 5 8 12 11 5 4 2 1
325 319 319 327 333 332 338 321 316 329 332 324 327 328 330 327 332 334 331 336 341 343 347 348 348 352 1 9 12 8 15 18 16 15 16 10 14 22 22 18 14 10 8 7 8 8 6 3 2
320 324 318 326 332 332 331 309 321 325 314 315 317 312 309 313 313 318 325 330 335 340 342 342 345 352 358 9 12 16 15 12 11 12 10 15 21 26 22 21 15 14 16 17 17 11 7 3 0
315 319 324 321 331 324 318 310 324 340 319 309 301 298 300 301 301 308 319 327 334 339 340 341 344 353 9 18 22 24 17 14 15 13 16 25 27 28 24 17 18 19 17 15 14 7 7 7 8
314 316 319 315 317 309 308 307 311 316 308 292 282 282 289 282 280 295 309 318 323 330 335 337 338 355 16 34 38 28 21 10 8 10 14 23 22 22 21 17 16 18 17 17 16 19 13 14 10
306 304 308 312 321 306 301 302 305 305 296 286 279 271 265 260 280 285 298 309 314 319 324 326 333 341 359 24 26 27 12 8 8 9 15 17 19 19 22 21 18 17 20 19 19 19 11 6 5
299 299 300 303 307 301 300 296 297 301 295 262 261 259 257 267 263 274 282 290 295 302 315 319 320 326 335 328 342 334 6 357 9 10 8 13 23 27 29 29 25 25 22 18 14 9 6 5 2
296 296 299 300 307 303 298 283 291 298 277 287 272 267 262 245 251 262 268 268 276 279 281 273 230 285 306 348 28 15 6 356 6 8 15 21 32 35 37 31 27 23 19 13 9 6 2 357 359
293 300 298 298 300 294 303 274 295 299 298 298 264 264 259 258 263 261 261 257 256 259 257 236 232 218 185 184 214 231 292 333 354 29 36 33 32 33 32 29 25 20 15 9 7 5 2 359 351
296 303 303 300 296 295 293 292 290 302 302 291 289 277 264 254 248 249 252 250 251 246 239 231 224 214 206 217 218 243 285 9 55 50 41 39 30 29 27 23 20 17 12 6 4 2 359 358 354
296 300 303 302 297 287 292 291 288 298 306 306 307 293 268 253 247 248 251 249 247 247 240 228 220 219 220 209 215 223 179 127 87 55 36 27 21 21 18 16 14 11 6 3 1 360 358 355 353
284 290 291 291 289 286 300 290 285 306 308 311 308 304 275 251 239 239 241 243 241 235 228 221 217 223 217 207 211 205 184 162 135 87 37 16 5 3 4 5 3 3 2 1 359 356 354 352 351
273 270 280 287 287 291 299 290 298 303 305 305 305 301 277 254 247 244 240 238 233 226 221 221 214 218 218 216 217 211 194 199 228 317 338 342 348 355 360 359 358 358 358 356 354 353 353 352 352
278 266 282 286 292 290 291 293 296 300 304 308 310 291 261 250 248 245 240 234 230 224 218 213 211 220 224 224 218 216 219 226 251 284 317 328 342 347 350 351 351 351 351 350 351 351 351 351 350
272 284 281 278 286 287 294 295 295 305 303 302 303 292 274 261 251 245 240 237 230 222 217 214 218 220 223 222 226 230 232 245 262 284 295 310 327 335 338 340 342 344 346 347 349 349 349 348 347
272 270 277 282 283 290 287 292 309 309 307 304 298 293 268 259 251 243 238 230 224 222 220 222 224 229 231 234 236 235 241 254 268 280 288 300 315 320 324 330 335 338 340 344 345 346 346 345 344
265 264 259 273 285 286 290 256 306 312 313 305 298 291 281 262 253 245 236 225 223 223 222 221 228 235 240 240 242 247 252 259 266 271 279 292 303 311 317 324 329 332 336 339 340 340 341 341 339